Regional Weather Roundup
Issued by NWS

Home | Current Version | Previous Version | Graphics & Text | Print | Product List | Glossary On
Versions: 1 2 3 4 5 6 7 8 9 10 11 12 13 14 15 16 17 18 19 20 21 22 23 24 25 26 27 28 29 30 31 32 33 34 35 36 37 38 39 40 41 42 43 44 45 46 47 48 49 50
000
ASUS43 KDTX 171101
RWRMI
MICHIGAN HOURLY REGIONAL WEATHER ROUNDUP
NATIONAL WEATHER SERVICE DETROIT/PONTIAC MI
600 AM EST TUE JAN 17 2017

NOTE: "FAIR" INDICATES FEW OR NO CLOUDS BELOW 12,000 FEET WITH NO
SIGNIFICANT WEATHER AND/OR OBSTRUCTION TO VISIBILITY.

MIZ047>049-052>055-059>063-066>070-074>076-081>083-171200-
SOUTHEAST LOWER MICHIGAN

CITY           SKY/WX    TMP DP  RH WIND       PRES   REMARKS
ADRIAN         FOG       34  34 100 E9        29.84F VSB 1/4 WCI  27
ALMA           CLOUDY    33  32  98 NE8       29.85F WCI  26
ANN ARBOR      CLOUDY    33  33 100 NE7       29.85F FOG     WCI  27
BAD AXE        MIX PCPN  33  32  97 E10G16    29.91F WCI  24
CARO           LGT SNOW  33  33  98 E8        29.87F WCI  26
DETROIT        LGT RAIN  35  34  96 NE6       29.88F VSB 1/2 WCI  30
FLINT          LGT RAIN  34  33  96 SE9       29.85F WCI  27
GROSSE ILE     FOG       35  35  97 CALM      29.86F VSB 1
HILLSDALE      LGT RAIN  34  34 100 E7        29.78F WCI  28
HOWELL         LGT SNOW  33  32  96 SE10      29.83F WCI  25

CITY           SKY/WX    TMP DP  RH WIND       PRES   REMARKS
JACKSON        RAIN      34  34 100 SE14      29.81F VSB 1/4 WCI  25
LAMBERTVILLE   FOG       36  34  94 E5        29.84F VSB 1/4 WCI  32
LANSING        CLOUDY    35  32  88 SE9       29.82F FOG     WCI  28
LAPEER         MIX PCPN  33  33  99 SE7       29.87F WCI  27
MASON          LGT RAIN  34  34  99 CALM      29.82F VSB 1
MONROE         FOG       36  36 100 E6        29.85F VSB 1/2 WCI  31
MT. CLEMENS    LGT RAIN  33  33  99 E6        29.87F FOG     WCI  28
PONTIAC        DRIZZLE   32  30  92 E8        29.85F FOG     WCI  25
PORT HOPE        N/A     34  33  96 E20       29.92F WCI  23
PORT HURON     MIX PCPN  34  32  93 E10       29.90F WCI  26
TRI CITIES     RAIN      33  33 100 E9        29.87F FOG     WCI  25
MIDLAND        MIX PCPN  33  32  96 NE9       29.87F WCI  25
TROY           MIX PCPN  33  32  96 E7        29.90F WCI  27
SAGINAW HB     MIX PCPN  34  32  93 E6        29.86F WCI  29
$$
MIZ043>046-050>051-056>058-064>065-071>073-077>080-171200-
SOUTHWEST LOWER MICHIGAN

CITY           SKY/WX    TMP DP  RH WIND       PRES   REMARKS
BATTLE CREEK   HVY RAIN  40  39  97 SE7       29.79S FOG
BENTON HARBOR  CLOUDY    46  44  93 E8        29.71F
BIG RAPIDS     LGT SNOW  32  31  96 E9G16     29.82F WCI  25
COLDWATER      LGT RAIN  40  40 100 SE6       29.77F
FREMONT        LGT SNOW  33  33 100 E10       29.80S WCI  25
HOLLAND        HVY RAIN  37  35  92 E8        29.76F FOG     WCI  31
GRAND RAPIDS   RAIN      35  35 100 E10       29.79F VSB 3/4 WCI  27
IONIA          MIX PCPN  32  32  99 NE6       29.79F WCI  27
KALAMAZOO      LGT RAIN  42  40  92 SE6       29.78F
LUDINGTON      CLOUDY    35  34  98 E10       29.79F WCI  27
MARSHALL       LGT RAIN  38  37  98 E6        29.79F WCI  33
MOUNT PLEASANT MIX PCPN  32  32  99 E7        29.86F WCI  26
MUSKEGON       RAIN      35  34  96 E12       29.78F FOG     WCI  27
SOUTH HAVEN    MIX PCPN  42  41  99 SE10      29.72F
$$
MIZ016>042-171200-
NORTHERN LOWER MICHIGAN

CITY           SKY/WX    TMP DP  RH WIND       PRES   REMARKS
ALPENA         LGT RAIN  33  31  92 E7        29.98F FOG     WCI  27
BELLAIRE       FLURRIES  36  34  94 NE6       29.89F WCI  31
CADILLAC       MIX PCPN  33  32  97 E12       29.82F WCI  24
CHARLEVOIX     CLOUDY    34  33  96 NE7       29.94F WCI  28
FRANKFORT      CLOUDY    35  34  96 NE7       29.83F WCI  29
GAYLORD        RAIN      34  30  85 VRB3      29.90F FOG
GRAYLING       MIX PCPN  33  33  97 E10       29.89F WCI  25
HARBOR SPRINGS FLURRIES  32  28  86 E10       29.94S WCI  23
HOUGHTON LAKE  LGT RAIN  33  32  96 E10       29.88F FOG     WCI  25
MANISTEE       LGT RAIN  35  34  96 E10       29.81F WCI  27
OSCODA         MIX PCPN  35  34  96 E10       29.94F WCI  27
PELLSTON       CLOUDY    31  22  69 E8        29.96F WCI  23
ROGERS CITY    LGT SNOW  31  27  85 E5        29.99F WCI  26
TRAVERSE CITY  MIX PCPN  37  34  89 NE3       29.87F
$$
MIZ007>008-015-171200-
EASTERN UPPER MICHIGAN

CITY           SKY/WX    TMP DP  RH WIND       PRES   REMARKS
KINROSS        CLOUDY    26  24  92 E9        30.00F WCI  17
MACKINAC ISLAN CLOUDY    33  33 100 E12G18    29.97F WCI  24
NEWBERRY       CLOUDY    24  23  97 E6        29.97F WCI  16
S. S. MARIE    CLOUDY    26  22  84 E5        30.01F WCI  20
$$
MIZ004>006-011>014-085-171200-
CENTRAL UPPER MICHIGAN

CITY           SKY/WX    TMP DP  RH WIND       PRES   REMARKS
MANISTIQUE     CLOUDY    28  28  97 NE5       29.96F WCI  23
ESCANABA       FLURRIES  29  27  92 N8        29.94F WCI  21
SAWYER-GWINN   PTCLDY    19  17  93 N5        29.95F WCI  12
$$
MIZ001>003-009>011-084-171200-
WESTERN UPPER MICHIGAN

CITY           SKY/WX    TMP DP  RH WIND       PRES   REMARKS
IRON MOUNTAIN  MIX PCPN  26  20  77 N7        29.90F WCI  18
HOUGHTON       PTCLDY    31  27  85 E8        29.95F WCI  23
COPPER HARBOR    N/A     28  26  92 CALM      29.99F
IRONWOOD       CLOUDY    22  20  92 CALM      29.93F
$$

ABBREVIATIONS USED IN REMARKS
   TC - TEMPERATURE IN CELSIUS
  WCI - WIND CHILL INDEX
   HX - HEAT INDEX
  VSB - VISIBILITY





USA.gov is the U.S. government's official web portal to all federal, state and local government web resources and services.